Location: Oregon Trail
(41.1872°N, 102.0741°W)
Time: 02:56:36
(UTC+00:00)

SMAP - Pass Details

Date: 19 November 2019
Orbit: 682 x 683 km, 98.1° (Epoch: 09 December)

Event Time Altitude Azimuth Distance (km) Brightness Sun altitude
Rises 12:53:39 0° 16° (NNE) 3,053 6.4 -9.1°
Reaches altitude 10° 12:55:55 10° 20° (NNE) 2,133 5.6 -8.7°
Maximum altitude 13:00:32 62° 101° (E) 771 3.7 -7.8°
Drops below altitude 10° 13:05:07 10° 182° (S) 2,116 5.8 -7.0°
Sets 13:07:22 0° 186° (S) 3,027 6.6 -6.6°
